COSMOS 1570

Satellite information

Favourite Embed

Satellite Type and Status

PAYLOADIN ORBIT

Key statistics

Satellite COSMOS 1570 at a glance.

Uptime

15164

Days in orbit

Revolutions

≈ 14.3

Per day

Orbit

LEO

Low Earth Orbit

Inclination

74.1

Latest

Satellite identification and parameters

Extended collection of information and parameters for COSMOS 1570.

Object identification

Identified? True

Debris? False

Object name: COSMOS 1570

International designator: 1984-056A

Object number (NORAD): 15031

Object ID (CCSDS): 15031

Country: COMMONWEALTH OF INDEPENDENT STATES (CIS)

Current information (Y/N): Y

RCS size: LARGE

Orbital parameters

Period: 100.516 minutes

Inclination: 74.0676 deg

SMA: 7161.156 km

Apoapsis: 791.732 km

Periapsis: 774.309 km

RAAN: 271.1339 deg

Eccentricy: 0.00121644

Argument of periapsis: 20.4034 deg

Mean anomaly: 92.8248 deg

Mean motion: 14.32610385 rev/day

Mean motion (dot): 0.00000266 rev/day2

B* drag term: 0.00010732792 1/REarth

Two-line elements (TLE)

Creation date: Dec. 12, 2025, 10:14 a.m.

Reference frame: TEME

Reference center: EARTH

Epoch: Dec. 12, 2025, 6:42 a.m. UTC

TLE line 0: 0 COSMOS 1570

TLE line 1: 1 15031U 84056A 25346.27931197 .00000266 00000-0 10733-3 0 9993

TLE line 2: 2 15031 74.0676 271.1339 0012164 20.4034 92.8248 14.32610385167667

Live tracking on map

Real-time ground track for satellite COSMOS 1570.

In-orbit conjunctions

A list of the most updated potential collisions computed for object COSMOS 1570.

Target Orbit TCA Probability of collision Miss distance Type
FENGYUN 1C DEB SSO 2025-11-18 16:53:40 0.0001240497 932.0 (m) DEBRIS
CZ-4C DEB SSO 2025-09-27 02:01:06 0.0002659379 516.0 (m) DEBRIS
THORAD AGENA D DEB SSO 2025-06-17 09:54:05 0.0001166691 101.0 (m) DEBRIS
DMSP 5D-3 F19 DEB SSO 2025-03-20 17:11:29 0.0002190507 443.0 (m) DEBRIS
CZ-6A DEB LEO 2025-03-11 18:42:57 0.0002197535 226.0 (m) DEBRIS

Associated space launch

Military communications satellite

COSMOS 1570 was lifted into orbit during the mission ‘Kosmos-3M | Strela-2M 35’, on board a Kosmos-3M space rocket.

The launch took place on June 8, 1984, 11:28 a.m. from 132/1 (132L).

For more information about the launch, click the button.

Launch to space Kosmos-3M | Strela-2M 35
Kosmos-3M | Strela-2M 35

Agency: N/A

Status: Launch Successful

Launch date: June 8, 1984, 11:28 a.m. UTC

Rocket: Kosmos-3M

Launch pad: 132/1 (132L)

Location: Plesetsk Cosmodrome, Russian Federation

...

Latest news about this satellite

There are no fresh news available about this satellite. Check back as we update our databases every day.


Newsletter sign-up

Weekly statistics, charts and insights to help you stay on top of the space industry.